Weather History for KBIX - September, 2013

Change the Weather History Date:

Friday, September 20, 2013

  Actual Average Record
Temperature  
Mean Temperature 82 °F -  
Max Temperature 89 °F 86 °F 95 °F (2005)
Min Temperature 77 °F 70 °F 53 °F (1981)
Cooling Degree Days 18    
Growing Degree Days 32 (Base 50)    
Moisture  
Dew Point 75 °F    
Average Humidity 78    
Maximum Humidity 94    
Minimum Humidity 63    
Precipitation  
Precipitation 0.12 in - - ()
Sea Level Pressure  
Sea Level Pressure 29.90 in    
Wind  
Wind Speed 8 mph (SSE)    
Max Wind Speed 15 mph    
Max Gust Speed 24 mph    
Visibility 9 miles    
Events Rain    
Averages and records for this station are not official NWS values.
T = Trace of Precipitation, MM = Missing Value Source: NWS Daily Summary

Daily Weather History Graph

Daily Weather History Graph

Search for Another Location

Airport or City:

Trip Planner

Search our weather history database for the weather conditions in past years. The results will help you decide how hot, cold, wet, or windy it might be!

Date:

Astronomy

Sep. 20, 2013 Rise Set
Actual Time 6:43 AM CDT 6:54 PM CDT
Civil Twilight 6:19 AM CDT 7:18 PM CDT
Nautical Twilight 5:51 AM CDT 7:46 PM CDT
Astronomical Twilight 5:22 AM CDT 8:14 PM CDT
Moon 7:38 PM CDT (9/20) 7:49 AM CDT (9/20)
Length of Visible Light 12h 59m
Length of Day
12h 11m
Full, 98% of the Moon is Illuminated
Sep 20
Full
Sep 26
Last Quarter
Oct 4
New
Oct 11
First Quarter
Oct 18
Full

Hourly Weather History & Observations

Time (CDT) Temp. Heat Index Dew Point Humidity Pressure Visibility Wind Dir Wind Speed Gust Speed Precip Events Conditions
5:55 AM 82.4 °F 88.2 °F 73.4 °F 74% 29.98 in 10.0 mi SSE 5.8 mph - N/A   Unknown
6:55 AM 77.9 °F - 74.3 °F 89% 29.98 in 10.0 mi ENE 4.6 mph - N/A   Mostly Cloudy
7:55 AM 79.9 °F - 74.3 °F 83% 29.98 in 10.0 mi East 3.5 mph - N/A   Scattered Clouds
8:55 AM 84.4 °F 92.4 °F 75.0 °F 73% 29.98 in 10.0 mi SSE 5.8 mph - N/A   Mostly Cloudy
9:55 AM 87.1 °F 96.3 °F 74.8 °F 67% 29.98 in 10.0 mi SSE 11.5 mph - N/A   Mostly Cloudy
10:55 AM 87.8 °F 98.1 °F 75.6 °F 67% 29.98 in 10.0 mi SSE 9.2 mph - N/A   Mostly Cloudy
11:55 AM 88.0 °F 98.5 °F 75.9 °F 67% 29.97 in 10.0 mi SE 9.2 mph - N/A   Mostly Cloudy
12:55 PM 88.9 °F 98.6 °F 75.0 °F 63% 29.94 in 10.0 mi SSE 11.5 mph 19.6 mph N/A   Mostly Cloudy
1:55 PM 88.5 °F 98.8 °F 75.6 °F 65% 29.91 in 10.0 mi SSE 10.4 mph - N/A   Scattered Clouds
2:55 PM 88.7 °F 99.3 °F 75.7 °F 65% 29.88 in 10.0 mi South 12.7 mph 20.7 mph N/A   Partly Cloudy
3:55 PM 83.5 °F 92.6 °F 76.6 °F 80% 29.87 in 10.0 mi South 12.7 mph - N/A   Scattered Clouds
4:17 PM 82.4 °F 89.5 °F 75.2 °F 79% 29.86 in 10.0 mi South 15.0 mph - N/A Rain Light Rain
4:26 PM 80.6 °F 85.4 °F 73.4 °F 79% 29.86 in 10.0 mi South 15.0 mph 24.2 mph N/A   Scattered Clouds
4:32 PM 80.6 °F 85.4 °F 73.4 °F 79% 29.86 in 9.0 mi South 12.7 mph 20.7 mph N/A Rain Light Rain
4:52 PM 78.8 °F - 75.2 °F 89% 29.86 in 2.5 mi SSE 8.1 mph - N/A Rain Light Rain
4:58 PM 78.3 °F - 75.0 °F 90% 29.86 in 2.5 mi South 9.2 mph - 0.11 in Rain Light Rain
5:03 PM 78.8 °F - 75.2 °F 89% 29.86 in 10.0 mi SSE 8.1 mph - N/A Rain Light Rain
5:19 PM 78.8 °F - 75.2 °F 89% 29.87 in 10.0 mi ESE 8.1 mph - N/A   Mostly Cloudy
5:34 PM 78.8 °F - 77.0 °F 94% 29.86 in 10.0 mi SE 3.5 mph - N/A   Mostly Cloudy
5:58 PM 79.5 °F - 76.5 °F 90% 29.86 in 10.0 mi ESE 2.3 mph - 0.01 in   Partly Cloudy
6:58 PM 81.9 °F 88.7 °F 75.4 °F 81% 29.86 in 10.0 mi South 6.9 mph - N/A   Clear
7:58 PM 82.0 °F 87.9 °F 73.9 °F 76% 29.87 in 10.0 mi South 10.4 mph - N/A   Partly Cloudy
8:58 PM 82.2 °F 89.1 °F 75.0 °F 79% 29.86 in 10.0 mi South 9.2 mph - N/A   Partly Cloudy
9:58 PM 82.6 °F 89.1 °F 74.5 °F 76% 29.86 in 10.0 mi South 10.4 mph - N/A   Clear
10:58 PM 82.2 °F 88.8 °F 74.7 °F 78% 29.85 in 10.0 mi SSW 12.7 mph - N/A   Clear
11:58 PM 82.4 °F 89.0 °F 74.5 °F 77% 29.84 in 10.0 mi South 10.4 mph - N/A   Clear